Tracking 30995 objects as of 5-Jul-2025
HD Live streaming from Space Station
objects crossing your sky now

STARLINK-5038

Track STARLINK-5038 now!
10-day predictions
STARLINK-5038 is classified as:


NORAD ID: 56472
Int'l Code: 2023-064AA
Perigee: 577.4 km
Apogee: 581.0 km
Inclination: 70.0 °
Period: 96.1 minutes
Semi major axis: 6950 km
RCS: Unknown
Launch date: May 10, 2023
Source: United States (US)
Launch site: AIR FORCE WESTERN TEST RANGE (AFWTR)
Your satellite tracking list
COSMOS 1275 DEB
Track 1 satellite(s)




NASA's NSSDC Master Catalog

Two Line Element Set (TLE):
1 56472U 23064AA  25185.91358633  .00000643  00000-0  61694-4 0  9991
2 56472  70.0002  29.2373 0002588 268.8718  91.2145 14.98331774118621
Source of the keplerian elements: AFSPC